Wakefield, VA

6:53 AM EST on December 08, 2019 (GMT -0500)
Wakefield Municipal

Weather History for KAKQ - June, 2019

Change the Weather History Date:

Tuesday, June 4, 2019

  Actual Average (WUND) Record (WUND)
Temperature  
Mean Temperature 66 °F -  
Max Temperature 80 °F - - (-1)
Min Temperature 51 °F - - (-1)
Growing Degree Days 16 (Base 50)    
Moisture  
Dew Point 50 °F    
Average Humidity 60    
Maximum Humidity 90    
Minimum Humidity 30    
Precipitation  
Precipitation 0.00 in - - ()
Sea Level Pressure  
Sea Level Pressure 30.14 in    
Wind  
Wind Speed 1 mph (WSW)    
Max Wind Speed 10 mph    
Max Gust Speed -    
Visibility 10 miles    
Events      
Averages and records for this station are not official NWS values.
T = Trace of Precipitation, MM = Missing Value Source: NWS Daily Summary

Daily Weather History Graph

Daily Weather History Graph

Search for Another Location

Airport or City:

Astronomy

Jun. 04, 2019 Rise Set
Actual Time 5:49 AM EDT 8:23 PM EDT
Civil Twilight 5:18 AM EDT 8:54 PM EDT
Nautical Twilight 4:41 AM EDT 9:32 PM EDT
Astronomical Twilight 3:59 AM EDT 10:14 PM EDT
Moon 6:55 AM EDT (6/4) 9:50 PM EDT (6/4)
Length of Visible Light 15h 35m
Length of Day
14h 34m
New Moon, 2% of the Moon is Illuminated
Jun 4
New Moon
Jun 10
First Quarter
Jun 17
Full
Jun 25
Last Quarter
Jul 2
New

Hourly Weather History & Observations

Time (EDT) Temp. Dew Point Humidity Pressure Visibility Wind Dir Wind Speed Gust Speed Precip Events Conditions
12:54 AM 55.9 °F 53.1 °F 90% 30.11 in 10.0 mi Calm Calm - N/A   Clear
1:54 AM 55.0 °F 52.0 °F 89% 30.11 in 9.0 mi Calm Calm - N/A   Clear
2:54 AM 54.0 °F 51.1 °F 90% 30.12 in 8.0 mi Calm Calm - N/A   Clear
3:54 AM 53.1 °F 50.0 °F 89% 30.13 in 9.0 mi Calm Calm - N/A   Clear
4:54 AM 52.0 °F 48.9 °F 89% 30.14 in 9.0 mi Calm Calm - N/A   Clear
5:54 AM 51.1 °F 48.0 °F 89% 30.16 in 7.0 mi Calm Calm - N/A   Clear
6:54 AM 55.0 °F 51.1 °F 86% 30.19 in 9.0 mi Calm Calm - N/A   Clear
7:54 AM 64.0 °F 54.0 °F 70% 30.21 in 10.0 mi Calm Calm - N/A   Clear
8:54 AM 68.0 °F 51.1 °F 55% 30.21 in 10.0 mi Calm Calm - N/A   Clear
9:54 AM 70.0 °F 46.0 °F 42% 30.21 in 10.0 mi East 3.5 mph - N/A   Clear
10:54 AM 72.0 °F 43.0 °F 35% 30.21 in 10.0 mi Calm Calm - N/A   Clear
11:54 AM 73.0 °F 46.0 °F 38% 30.19 in 10.0 mi SW 3.5 mph - N/A   Clear
12:54 PM 75.0 °F 46.0 °F 36% 30.18 in 10.0 mi Variable 5.8 mph - N/A   Clear
1:54 PM 77.0 °F 45.0 °F 32% 30.16 in 10.0 mi West 10.4 mph - N/A   Clear
2:54 PM 77.0 °F 45.0 °F 32% 30.15 in 10.0 mi West 4.6 mph - N/A   Clear
3:54 PM 79.0 °F 46.0 °F 31% 30.13 in 10.0 mi Variable 4.6 mph - N/A   Clear
4:54 PM 80.1 °F 46.0 °F 30% 30.11 in 10.0 mi WSW 5.8 mph - N/A   Clear
5:54 PM 79.0 °F 48.0 °F 34% 30.09 in 10.0 mi West 4.6 mph - N/A   Clear
6:54 PM 78.1 °F 50.0 °F 37% 30.07 in 10.0 mi Variable 3.5 mph - N/A   Clear
7:54 PM 71.1 °F 57.0 °F 61% 30.08 in 10.0 mi Calm Calm - N/A   Clear
8:54 PM 66.0 °F 57.0 °F 73% 30.08 in 10.0 mi Calm Calm - N/A   Clear
9:54 PM 63.0 °F 55.9 °F 78% 30.08 in 10.0 mi Calm Calm - N/A   Clear
10:54 PM 66.9 °F 54.0 °F 63% 30.08 in 10.0 mi Calm Calm - N/A   Clear
11:54 PM 66.9 °F 55.9 °F 68% 30.08 in 10.0 mi South 4.6 mph - N/A   Clear